Torna al catalogo

STARLINK-6080

AttivoComunicazioniVLEO
NORAD 56112·PAYLOAD·🇺🇸 United States

Lanciato Mar 29, 2023 da Cape Canaveral Space Force Station

Loading…

Prossimi Passaggi (prossime 24 ore)

TLE

AggiornatoSource: CelesTrak SupGP

Epoca: Sep 14, 2026, 21:26 UTC

1 56112C 23046V   26257.89354167 -.00024077  00000+0 -87247-3 0  2574
2 56112  43.0026 173.4021 0001714 271.4495  81.7113 15.27575323    17

Traccia STARLINK-6080 in tempo reale con AllMySat

Download on the App Store